| time (UTC) | temp C | wind direction | speed KPH | gust KPH | rain 1hr cm | rain 24hr cm | rain mn cm | humidity % | barometer mb |
| 20260508042655 | 7 | 45 | 0.0 | 0.0 | 0.00 | 0.00 | 0.00 | 8 | 1001.4 |
| 20260508042147 | 7 | 45 | 0.0 | 0.0 | 0.00 | 0.00 | 0.00 | 8 | 1000.6 |
| 20260508041639 | 7 | 90 | 0.0 | 0.0 | 0.00 | 0.00 | 0.00 | 8 | 1000.5 |
| 20260508041132 | 7 | 90 | 0.0 | 0.0 | 0.00 | 0.00 | 0.00 | 8 | 1001.7 |
| 20260508040624 | 7 | 90 | 0.0 | 0.0 | 0.00 | 0.00 | 0.00 | 9 | 1000.5 |
| 20260508040117 | 7 | 90 | 0.0 | 0.0 | 0.00 | 0.00 | 0.00 | 8 | 1001.0 |
| 20260508035610 | 7 | -1 | 0.0 | 0.0 | 0.00 | 0.00 | 0.00 | 8 | 1001.5 |
| 20260508035103 | 7 | 45 | 0.0 | 0.0 | 0.00 | 0.00 | 0.00 | 8 | 1000.6 |
| 20260508034556 | 7 | 90 | 0.0 | 0.0 | 0.00 | 0.00 | 0.00 | 8 | 1000.4 |
| 20260508034049 | 7 | -1 | 0.0 | 0.0 | 0.00 | 0.00 | 0.00 | 8 | 1002.3 |
| 20260508033542 | 7 | 90 | 0.0 | 0.0 | 0.00 | 0.00 | 0.00 | 8 | 1002.5 |
| 20260508033035 | 7 | 90 | 0.0 | 0.0 | 0.00 | 0.00 | 0.00 | 9 | 1001.7 |
| 20260508032527 | 7 | 45 | 0.0 | 0.0 | 0.00 | 0.00 | 0.00 | 9 | 1000.7 |
| 20260508032020 | 7 | 90 | 0.0 | 0.0 | 0.00 | 0.00 | 0.00 | 8 | 1001.2 |
| 20260508031513 | 7 | 45 | 0.0 | 0.0 | 0.00 | 0.00 | 0.00 | 8 | 1001.3 |
| 20260508031006 | 7 | -1 | 0.0 | 0.0 | 0.00 | 0.00 | 0.00 | 8 | 1000.8 |
| 20260508030459 | 7 | 45 | 0.0 | 0.0 | 0.00 | 0.00 | 0.00 | 8 | 1000.6 |
| 20260508025952 | 7 | 90 | 0.0 | 0.0 | 0.00 | 0.00 | 0.00 | 8 | 1003.7 |
| 20260508025445 | 7 | 45 | 0.0 | 0.0 | 0.00 | 0.00 | 0.00 | 9 | 1002.0 |
| 20260508024938 | 7 | 45 | 0.0 | 0.0 | 0.00 | 0.00 | 0.00 | 9 | 1002.3 |
| 20260508024431 | 7 | 45 | 0.0 | 0.0 | 0.00 | 0.00 | 0.00 | 9 | 1002.4 |
| 20260508023924 | 7 | 45 | 0.0 | 0.0 | 0.00 | 0.00 | 0.00 | 9 | 1001.7 |
| 20260508023417 | 7 | 45 | 0.0 | 0.0 | 0.00 | 0.00 | 0.00 | 9 | 1001.9 |
| 20260508022910 | 7 | 45 | 0.0 | 0.0 | 0.00 | 0.00 | 0.00 | 9 | 1001.1 |
| 20260508022403 | 7 | 45 | 0.0 | 0.0 | 0.00 | 0.00 | 0.00 | 9 | 1001.7 |
| 20260508021856 | 7 | 45 | 0.0 | 0.0 | 0.00 | 0.00 | 0.00 | 9 | 1001.5 |
| 20260508021349 | 7 | 45 | 0.0 | 0.0 | 0.00 | 0.00 | 0.00 | 9 | 1001.6 |
| 20260508020842 | 7 | 45 | 0.0 | 0.0 | 0.00 | 0.00 | 0.00 | 9 | 1001.4 |
| 20260508020335 | 7 | 45 | 0.0 | 0.0 | 0.00 | 0.00 | 0.00 | 9 | 1002.3 |
| 20260508015827 | 7 | 45 | 0.0 | 0.0 | 0.00 | 0.00 | 0.00 | 9 | 1001.8 |
| 20260508015320 | 7 | 0 | 0.0 | 0.0 | 0.00 | 0.00 | 0.00 | 9 | 1002.1 |
| 20260508014813 | 7 | 45 | 0.0 | 0.0 | 0.00 | 0.00 | 0.00 | 9 | 1002.7 |
| 20260508014306 | 7 | 0 | 0.0 | 0.0 | 0.00 | 0.00 | 0.00 | 9 | 1002.6 |
| 20260508013758 | 7 | 0 | 0.0 | 0.0 | 0.00 | 0.00 | 0.00 | 9 | 1003.3 |
| 20260508013251 | 7 | 45 | 0.0 | 0.0 | 0.00 | 0.00 | 0.00 | 9 | 1002.6 |
| 20260508012744 | 7 | -1 | 0.0 | 0.0 | 0.00 | 0.00 | 0.00 | 9 | 1003.2 |
| 20260508012237 | 7 | 45 | 0.0 | 0.0 | 0.00 | 0.00 | 0.00 | 10 | 1002.9 |
| 20260508011730 | 7 | 45 | 0.0 | 0.0 | 0.00 | 0.00 | 0.00 | 10 | 1003.6 |
| 20260508011223 | 7 | 0 | 0.0 | 0.0 | 0.00 | 0.00 | 0.00 | 9 | 1004.6 |
| 20260508010716 | 7 | 0 | 0.0 | 0.0 | 0.00 | 0.00 | 0.00 | 10 | 1004.6 |
| 20260508010209 | 7 | 45 | 0.0 | 0.0 | 0.00 | 0.00 | 0.00 | 10 | 1004.0 |
| 20260508005701 | 7 | 0 | 0.0 | 0.0 | 0.00 | 0.00 | 0.00 | 9 | 1003.9 |
| 20260508005153 | 7 | 0 | 0.0 | 0.0 | 0.00 | 0.00 | 0.00 | 10 | 1003.8 |
| 20260508004646 | 7 | -1 | 0.0 | 0.0 | 0.00 | 0.00 | 0.00 | 9 | 1003.7 |
| 20260508004138 | 7 | 0 | 0.0 | 0.0 | 0.00 | 0.00 | 0.00 | 9 | 1003.2 |
| 20260508003631 | 7 | 45 | 0.0 | 0.0 | 0.00 | 0.00 | 0.00 | 9 | 1002.7 |
| 20260508003124 | 7 | 45 | 0.0 | 0.0 | 0.00 | 0.00 | 0.00 | 9 | 1003.1 |
| 20260508002616 | 7 | 0 | 0.0 | 0.0 | 0.00 | 0.00 | 0.00 | 9 | 1004.3 |
| 20260508002108 | 7 | 45 | 0.0 | 0.0 | 0.00 | 0.00 | 0.00 | 9 | 1003.4 |
| 20260508001601 | 7 | 0 | 0.0 | 0.0 | 0.00 | 0.00 | 0.00 | 9 | 1003.1 |
| 20260508001054 | 7 | -1 | 0.0 | 0.0 | 0.00 | 0.00 | 0.00 | 9 | 1003.5 |
| 20260508000546 | 7 | 337 | 0.0 | 0.0 | 0.00 | 0.00 | 0.00 | 10 | 1004.9 |
| 20260508000039 | 7 | 0 | 0.0 | 0.0 | 0.00 | 0.00 | 0.00 | 10 | 1004.3 |
| 20260507235532 | 7 | 45 | 0.0 | 0.0 | 0.00 | 0.00 | 0.28 | 10 | 1003.6 |
| 20260507235025 | 7 | 0 | 0.0 | 0.0 | 0.00 | 0.00 | 0.28 | 9 | 1004.2 |
| 20260507234518 | 7 | 45 | 0.0 | 0.0 | 0.00 | 0.00 | 0.28 | 9 | 1003.8 |
| 20260507234011 | 7 | 0 | 0.0 | 0.0 | 0.00 | 0.00 | 0.28 | 9 | 1004.2 |
| 20260507233504 | 7 | 45 | 0.0 | 0.0 | 0.00 | 0.00 | 0.28 | 9 | 1003.9 |
| 20260507232956 | 7 | 90 | 0.0 | 0.0 | 0.00 | 0.00 | 0.28 | 10 | 1004.1 |
| 20260507232449 | 7 | 45 | 0.0 | 0.0 | 0.00 | 0.00 | 0.28 | 9 | 1004.1 |
| 20260507231941 | 7 | 90 | 0.0 | 0.0 | 0.00 | 0.00 | 0.28 | 10 | 1004.2 |
| 20260507231434 | 7 | 0 | 0.0 | 0.0 | 0.00 | 0.00 | 0.28 | 9 | 1004.4 |
| 20260507230926 | 7 | 45 | 0.0 | 0.0 | 0.00 | 0.00 | 0.28 | 10 | 1005.6 |
| 20260507230419 | 7 | 45 | 0.0 | 0.0 | 0.00 | 0.00 | 0.28 | 10 | 1005.2 |
| 20260507225912 | 7 | 45 | 0.0 | 0.0 | 0.00 | 0.00 | 0.28 | 9 | 1003.9 |
| 20260507225405 | 7 | 45 | 0.0 | 0.0 | 0.00 | 0.00 | 0.28 | 10 | 1005.1 |
| 20260507224858 | 8 | 45 | 0.0 | 0.0 | 0.00 | 0.00 | 0.28 | 10 | 1005.3 |
| 20260507224351 | 8 | 0 | 0.0 | 0.0 | 0.00 | 0.00 | 0.28 | 10 | 1005.3 |
| 20260507223843 | 7 | 337 | 0.0 | 0.0 | 0.00 | 0.00 | 0.28 | 10 | 1003.9 |
| 20260507223336 | 7 | 0 | 0.0 | 0.0 | 0.00 | 0.00 | 0.28 | 9 | 1005.0 |
| 20260507222829 | 7 | 0 | 0.0 | 0.0 | 0.00 | 0.00 | 0.28 | 9 | 1004.8 |
| 20260507222321 | 7 | 0 | 8.0 | 11.3 | 0.00 | 0.00 | 0.28 | 9 | 1005.8 |
| 20260507221814 | 7 | 0 | 8.0 | 12.9 | 0.00 | 0.00 | 0.28 | 10 | 1005.6 |
| 20260507221307 | 8 | 315 | 8.0 | 14.5 | 0.00 | 0.00 | 0.28 | 10 | 1004.9 |
| 20260507220800 | 7 | 0 | 11.3 | 17.7 | 0.00 | 0.00 | 0.28 | 10 | 1005.5 |
| 20260507220253 | 8 | 0 | 11.3 | 17.7 | 0.00 | 0.00 | 0.28 | 10 | 1004.5 |
| 20260507215746 | 8 | 0 | 9.7 | 16.1 | 0.00 | 0.00 | 0.28 | 10 | 1004.5 |
| 20260507215239 | 8 | 315 | 12.9 | 17.7 | 0.00 | 0.00 | 0.28 | 10 | 1004.8 |
| 20260507214732 | 8 | 0 | 11.3 | 19.3 | 0.00 | 0.00 | 0.28 | 10 | 1005.1 |
| 20260507214225 | 8 | 315 | 9.7 | 20.9 | 0.00 | 0.00 | 0.28 | 10 | 1005.8 |
| 20260507213718 | 8 | 315 | 11.3 | 19.3 | 0.00 | 0.00 | 0.28 | 10 | 1005.3 |
| 20260507213211 | 8 | 315 | 9.7 | 17.7 | 0.00 | 0.00 | 0.28 | 10 | 1005.2 |
| 20260507212704 | 8 | 337 | 11.3 | 19.3 | 0.00 | 0.00 | 0.28 | 10 | 1005.6 |
| 20260507212157 | 8 | 0 | 11.3 | 17.7 | 0.00 | 0.00 | 0.28 | 10 | 1004.9 |
| 20260507211650 | 8 | 0 | 9.7 | 17.7 | 0.00 | 0.00 | 0.28 | 10 | 1005.6 |
| 20260507211142 | 8 | 315 | 12.9 | 20.9 | 0.00 | 0.00 | 0.28 | 10 | 1005.0 |
| 20260507210635 | 8 | 0 | 14.5 | 24.1 | 0.00 | 0.00 | 0.28 | 10 | 1005.2 |
| 20260507210128 | 8 | 0 | 16.1 | 27.4 | 0.00 | 0.00 | 0.28 | 10 | 1005.0 |
| 20260507205620 | 8 | 0 | 14.5 | 20.9 | 0.00 | 0.00 | 0.28 | 10 | 1005.4 |
| 20260507205112 | 8 | 315 | 14.5 | 25.7 | 0.00 | 0.00 | 0.28 | 10 | 1004.8 |
| 20260507204605 | 8 | 0 | 16.1 | 25.7 | 0.00 | 0.00 | 0.28 | 10 | 1004.9 |
| 20260507204058 | 8 | 0 | 12.9 | 24.1 | 0.00 | 0.00 | 0.28 | 10 | 1005.2 |
| 20260507203551 | 8 | 0 | 14.5 | 24.1 | 0.00 | 0.00 | 0.28 | 10 | 1005.6 |
| 20260507203044 | 8 | 315 | 14.5 | 29.0 | 0.00 | 0.00 | 0.28 | 10 | 1004.6 |
| 20260507202537 | 8 | 337 | 19.3 | 29.0 | 0.00 | 0.00 | 0.28 | 10 | 1004.1 |
| 20260507202030 | 8 | -1 | 17.7 | 30.6 | 0.00 | 0.00 | 0.28 | 10 | 1004.6 |
| 20260507201523 | 8 | 315 | 16.1 | 25.7 | 0.00 | 0.00 | 0.28 | 10 | 1004.3 |
| 20260507201016 | 8 | -1 | 12.9 | 24.1 | 0.00 | 0.00 | 0.28 | 10 | 1005.0 |
| 20260507200509 | 8 | 315 | 17.7 | 25.7 | 0.00 | 0.00 | 0.28 | 10 | 1004.2 |
| 20260507200002 | 8 | 315 | 12.9 | 19.3 | 0.00 | 0.00 | 0.25 | 10 | 1005.4 |
| 20260507195455 | 8 | 0 | 14.5 | 20.9 | 0.00 | 0.00 | 0.25 | 10 | 1004.3 |
| 20260507194948 | 8 | 0 | 14.5 | 24.1 | 0.00 | 0.00 | 0.25 | 10 | 1004.6 |
| 20260507194441 | 8 | 315 | 14.5 | 20.9 | 0.00 | 0.00 | 0.25 | 10 | 1004.3 |
| 20260507193934 | 8 | -1 | 16.1 | 22.5 | 0.00 | 0.00 | 0.25 | 10 | 1003.9 |
| 20260507193427 | 9 | 315 | 9.7 | 12.9 | 0.00 | 0.00 | 0.25 | 9 | 1003.6 |
| 20260507192920 | 9 | 315 | 0.0 | 0.0 | 0.00 | 0.00 | 0.25 | 9 | 1004.9 |
| 20260507192412 | 9 | 315 | 0.0 | 0.0 | 0.00 | 0.00 | 0.25 | 10 | 1005.2 |
| 20260507191905 | 9 | 315 | 0.0 | 0.0 | 0.00 | 0.00 | 0.25 | 10 | 1004.9 |
| 20260507191358 | 9 | 315 | 8.0 | 11.3 | 0.00 | 0.00 | 0.25 | 9 | 1005.0 |
| 20260507190851 | 9 | 315 | 8.0 | 11.3 | 0.00 | 0.00 | 0.23 | 9 | 1004.7 |
| 20260507190344 | 9 | 0 | 9.7 | 14.5 | 0.00 | 0.00 | 0.23 | 9 | 1005.6 |
| 20260507185836 | 9 | 0 | 12.9 | 19.3 | 0.00 | 0.00 | 0.23 | 10 | 1005.4 |
| 20260507185329 | 9 | 0 | 11.3 | 17.7 | 0.00 | 0.00 | 0.20 | 10 | 1005.7 |
| 20260507184822 | 9 | 315 | 14.5 | 17.7 | 0.00 | 0.00 | 0.18 | 10 | 1004.6 |
| 20260507184315 | 10 | -1 | 12.9 | 17.7 | 0.00 | 0.00 | 0.18 | 10 | 1004.8 |
| 20260507183808 | 10 | -1 | 12.9 | 19.3 | 0.00 | 0.00 | 0.15 | 10 | 1003.8 |
| 20260507183301 | 10 | -1 | 0.0 | 0.0 | 0.00 | 0.00 | 0.15 | 9 | 1004.8 |
| 20260507182754 | 10 | -1 | 0.0 | 0.0 | 0.00 | 0.00 | 0.15 | 9 | 1004.3 |
| 20260507182247 | 10 | -1 | 0.0 | 0.0 | 0.00 | 0.00 | 0.13 | 9 | 1004.6 |
| 20260507181739 | 10 | -1 | 9.7 | 12.9 | 0.00 | 0.00 | 0.13 | 9 | 1004.6 |
| 20260507181231 | 10 | 315 | 0.0 | 0.0 | 0.00 | 0.00 | 0.13 | 9 | 1005.1 |
| 20260507180724 | 10 | 315 | 9.7 | 12.9 | 0.00 | 0.00 | 0.13 | 10 | 1004.4 |
| 20260507180217 | 10 | 315 | 0.0 | 0.0 | 0.00 | 0.00 | 0.13 | 9 | 1004.3 |
| 20260507175709 | 10 | 0 | 0.0 | 0.0 | 0.00 | 0.00 | 0.13 | 9 | 1005.0 |
| 20260507175202 | 10 | 0 | 0.0 | 0.0 | 0.00 | 0.00 | 0.13 | 9 | 1004.8 |
| 20260507174655 | 10 | 0 | 0.0 | 0.0 | 0.00 | 0.00 | 0.10 | 9 | 1004.8 |
| 20260507174147 | 10 | 315 | 0.0 | 0.0 | 0.00 | 0.00 | 0.10 | 9 | 1004.5 |
| 20260507173639 | 10 | 0 | 0.0 | 0.0 | 0.00 | 0.00 | 0.10 | 9 | 1003.6 |
| 20260507173132 | 10 | 315 | 0.0 | 0.0 | 0.00 | 0.00 | 0.10 | 9 | 1003.5 |
| 20260507172625 | 10 | 315 | 0.0 | 0.0 | 0.00 | 0.00 | 0.10 | 9 | 1004.6 |
| 20260507172117 | 10 | 315 | 0.0 | 0.0 | 0.00 | 0.00 | 0.08 | 9 | 1001.4 |
| 20260507171610 | 10 | -1 | 0.0 | 0.0 | 0.00 | 0.00 | 0.08 | 9 | 1004.6 |
| 20260507171102 | 10 | -1 | 0.0 | 0.0 | 0.00 | 0.00 | 0.05 | 9 | 1004.3 |
| 20260507170554 | 10 | -1 | 0.0 | 0.0 | 0.00 | 0.00 | 0.03 | 9 | 1003.1 |
| 20260507170047 | 10 | 315 | 0.0 | 0.0 | 0.00 | 0.00 | 0.03 | 9 | 1002.6 |
| 20260507165540 | 10 | 315 | 0.0 | 0.0 | 0.00 | 0.00 | 0.03 | 9 | 1001.5 |
| 20260507165032 | 10 | 0 | 8.0 | 9.7 | 0.00 | 0.00 | 0.03 | 9 | 1001.9 |
| 20260507164524 | 10 | -1 | 8.0 | 14.5 | 0.00 | 0.00 | 0.03 | 9 | 1002.3 |
| 20260507164017 | 10 | 315 | 9.7 | 16.1 | 0.00 | 0.00 | 0.03 | 9 | 1001.6 |
| 20260507163510 | 10 | -1 | 11.3 | 17.7 | 0.00 | 0.00 | 0.03 | 8 | 1001.0 |
| 20260507163003 | 10 | -1 | 9.7 | 14.5 | 0.00 | 0.00 | 0.03 | 8 | 1000.1 |
| 20260507162456 | 10 | -1 | 9.7 | 4.8 | 0.00 | 0.00 | 0.03 | 8 | 1001.7 |
| 20260507161948 | 10 | 315 | 0.0 | 0.0 | 0.00 | 0.00 | 0.03 | 8 | 1000.6 |
| 20260507161442 | 10 | 315 | 0.0 | 0.0 | 0.00 | 0.00 | 0.03 | 8 | 1001.2 |
| 20260507160935 | 10 | -1 | 9.7 | 12.9 | 0.00 | 0.00 | 0.03 | 8 | 1001.7 |
| 20260507160427 | 10 | -1 | 9.7 | 14.5 | 0.00 | 0.00 | 0.03 | 9 | 1000.9 |
| 20260507155921 | 10 | 315 | 12.9 | 20.9 | 0.00 | 0.00 | 0.03 | 9 | 1001.6 |
| 20260507155413 | 10 | -1 | 14.5 | 20.9 | 0.00 | 0.00 | 0.03 | 9 | 1000.4 |
| 20260507154907 | 10 | -1 | 14.5 | 22.5 | 0.00 | 0.00 | 0.03 | 9 | 1000.1 |
| 20260507154359 | 10 | -1 | 14.5 | 30.6 | 0.00 | 0.00 | 0.03 | 9 | 1000.3 |
| 20260507153851 | 10 | -1 | 16.1 | 24.1 | 0.00 | 0.00 | 0.03 | 9 | 999.6 |
| 20260507153344 | 10 | -1 | 17.7 | 29.0 | 0.00 | 0.00 | 0.03 | 9 | 998.5 |
| 20260507152836 | 11 | -1 | 12.9 | 17.7 | 0.00 | 0.00 | 0.03 | 8 | 1001.7 |
| 20260507152329 | 11 | -1 | 11.3 | 17.7 | 0.00 | 0.00 | 0.03 | 8 | 1001.6 |
| 20260507151821 | 11 | -1 | 11.3 | 19.3 | 0.00 | 0.00 | 0.03 | 8 | 1001.6 |
| 20260507151314 | 11 | -1 | 9.7 | 12.9 | 0.00 | 0.00 | 0.03 | 8 | 1002.3 |
| 20260507150806 | 11 | -1 | 9.7 | 16.1 | 0.00 | 0.00 | 0.03 | 8 | 999.8 |
| 20260507150259 | 11 | 225 | 8.0 | 16.1 | 0.00 | 0.00 | 0.03 | 8 | 1000.4 |
| 20260507145751 | 11 | -1 | 12.9 | 19.3 | 0.00 | 0.00 | 0.03 | 7 | 1004.2 |
| 20260507145244 | 11 | -1 | 16.1 | 27.4 | 0.00 | 0.00 | 0.03 | 8 | 998.7 |
| 20260507144736 | 11 | -1 | 14.5 | 24.1 | 0.00 | 0.00 | 0.03 | 8 | 999.4 |
| 20260507144228 | 10 | -1 | 14.5 | 20.9 | 0.00 | 0.00 | 0.03 | 8 | 1000.4 |
| 20260507143721 | 10 | -1 | 12.9 | 25.7 | 0.00 | 0.00 | 0.03 | 8 | 1000.9 |
| 20260507143212 | 10 | -1 | 16.1 | 24.1 | 0.00 | 0.00 | 0.03 | 9 | 1000.4 |
| 20260507142706 | 10 | 225 | 17.7 | 25.7 | 0.00 | 0.00 | 0.03 | 9 | 999.1 |
| 20260507142159 | 10 | -1 | 17.7 | 30.6 | 0.00 | 0.00 | 0.03 | 9 | 999.4 |
| 20260507141651 | 10 | 225 | 19.3 | 32.2 | 0.00 | 0.00 | 0.03 | 8 | 1000.9 |
| 20260507141145 | 10 | -1 | 20.9 | 32.2 | 0.00 | 0.00 | 0.03 | 9 | 998.9 |
| 20260507140637 | 10 | -1 | 22.5 | 33.8 | 0.00 | 0.00 | 0.03 | 8 | 998.4 |
| 20260507140130 | 10 | 225 | 22.5 | 32.2 | 0.00 | 0.00 | 0.03 | 9 | 998.1 |
| 20260507135622 | 10 | 225 | 25.7 | 40.2 | 0.00 | 0.00 | 0.03 | 8 | 999.1 |
| 20260507135115 | 10 | -1 | 29.0 | 53.1 | 0.00 | 0.00 | 0.03 | 8 | 998.1 |
| 20260507134607 | 12 | -1 | 20.9 | 45.1 | 0.00 | 0.00 | 0.00 | 8 | 997.2 |
| 20260507134059 | 12 | -1 | 19.3 | 33.8 | 0.00 | 0.00 | 0.00 | 7 | 996.2 |
| 20260507133551 | 12 | -1 | 20.9 | 33.8 | 0.00 | 0.00 | 0.00 | 7 | 994.1 |
| 20260507133044 | 12 | 225 | 17.7 | 33.8 | 0.00 | 0.00 | 0.00 | 7 | 998.1 |
| 20260507132537 | 12 | -1 | 20.9 | 33.8 | 0.00 | 0.00 | 0.00 | 7 | 997.8 |
| 20260507132030 | 12 | -1 | 12.9 | 20.9 | 0.00 | 0.00 | 0.00 | 7 | 1001.0 |
| 20260507131522 | 12 | -1 | 16.1 | 27.4 | 0.00 | 0.00 | 0.00 | 7 | 998.7 |
| 20260507131015 | 12 | 225 | 25.7 | 43.5 | 0.00 | 0.00 | 0.00 | 7 | 998.6 |
| 20260507130507 | 12 | -1 | 22.5 | 35.4 | 0.00 | 0.00 | 0.00 | 7 | 993.7 |
| 20260507130000 | 13 | 225 | 25.7 | 37.0 | 0.00 | 0.00 | 0.00 | 7 | 993.1 |
| 20260507125453 | 13 | -1 | 20.9 | 35.4 | 0.00 | 0.00 | 0.00 | 6 | 995.3 |
| 20260507124946 | 13 | -1 | 22.5 | 32.2 | 0.00 | 0.00 | 0.00 | 7 | 992.9 |
| 20260507124439 | 12 | -1 | 17.7 | 27.4 | 0.00 | 0.00 | 0.00 | 6 | 996.8 |
| 20260507123931 | 12 | 225 | 17.7 | 27.4 | 0.00 | 0.00 | 0.00 | 6 | 996.7 |
| 20260507123424 | 12 | -1 | 16.1 | 22.5 | 0.00 | 0.00 | 0.00 | 7 | 994.1 |
| 20260507122917 | 12 | -1 | 20.9 | 32.2 | 0.00 | 0.00 | 0.00 | 7 | 994.2 |
| 20260507122408 | 12 | 225 | 16.1 | 33.8 | 0.00 | 0.00 | 0.00 | 6 | 996.0 |
| 20260507121900 | 12 | -1 | 22.5 | 33.8 | 0.00 | 0.00 | 0.00 | 6 | 995.4 |
| 20260507121352 | 13 | 225 | 20.9 | 32.2 | 0.00 | 0.00 | 0.00 | 7 | 995.0 |
| 20260507120845 | 13 | 270 | 22.5 | 33.8 | 0.00 | 0.00 | 0.00 | 7 | 993.5 |
| 20260507120337 | 12 | -1 | 22.5 | 37.0 | 0.00 | 0.00 | 0.00 | 7 | 992.5 |
| 20260507115830 | 13 | 225 | 16.1 | 29.0 | 0.00 | 0.00 | 0.00 | 6 | 994.7 |
| 20260507115323 | 12 | -1 | 20.9 | 30.6 | 0.00 | 0.00 | 0.00 | 7 | 991.1 |
| 20260507114816 | 12 | -1 | 20.9 | 32.2 | 0.00 | 0.00 | 0.00 | 6 | 995.8 |
| 20260507114309 | 12 | -1 | 19.3 | 32.2 | 0.00 | 0.00 | 0.00 | 6 | 995.3 |
| 20260507113802 | 12 | 225 | 14.5 | 25.7 | 0.00 | 0.00 | 0.00 | 6 | 995.7 |
| 20260507113254 | 12 | -1 | 20.9 | 30.6 | 0.00 | 0.00 | 0.00 | 6 | 995.9 |
| 20260507112747 | 12 | 225 | 22.5 | 35.4 | 0.00 | 0.00 | 0.00 | 6 | 994.5 |
| 20260507112240 | 12 | -1 | 22.5 | 32.2 | 0.00 | 0.00 | 0.00 | 6 | 996.6 |
| 20260507111732 | 12 | 225 | 22.5 | 33.8 | 0.00 | 0.00 | 0.00 | 7 | 995.6 |
| 20260507111225 | 12 | -1 | 25.7 | 38.6 | 0.00 | 0.00 | 0.00 | 7 | 992.5 |
| 20260507110717 | 12 | -1 | 22.5 | 35.4 | 0.00 | 0.00 | 0.00 | 7 | 993.9 |
| 20260507110210 | 12 | -1 | 24.1 | 40.2 | 0.00 | 0.00 | 0.00 | 6 | 994.8 |
| 20260507105703 | 12 | -1 | 25.7 | 35.4 | 0.00 | 0.00 | 0.00 | 7 | 993.1 |
| 20260507105156 | 12 | -1 | 29.0 | 41.8 | 0.00 | 0.00 | 0.00 | 7 | 994.8 |
| 20260507104649 | 12 | -1 | 24.1 | 33.8 | 0.00 | 0.00 | 0.00 | 6 | 995.8 |
| 20260507104142 | 12 | -1 | 22.5 | 37.0 | 0.00 | 0.00 | 0.00 | 7 | 991.8 |
| 20260507103634 | 12 | -1 | 20.9 | 33.8 | 0.00 | 0.00 | 0.00 | 7 | 995.2 |
| 20260507103126 | 11 | -1 | 24.1 | 37.0 | 0.00 | 0.00 | 0.00 | 7 | 993.8 |
| 20260507102619 | 11 | -1 | 20.9 | 32.2 | 0.00 | 0.00 | 0.00 | 7 | 995.9 |
| 20260507102111 | 11 | -1 | 20.9 | 37.0 | 0.00 | 0.00 | 0.00 | 7 | 992.0 |
| 20260507101604 | 12 | -1 | 22.5 | 37.0 | 0.00 | 0.00 | 0.00 | 7 | 992.0 |
| 20260507101056 | 12 | -1 | 20.9 | 33.8 | 0.00 | 0.00 | 0.00 | 7 | 994.6 |
| 20260507100549 | 12 | -1 | 27.4 | 38.6 | 0.00 | 0.00 | 0.00 | 7 | 993.3 |
| 20260507100042 | 12 | -1 | 22.5 | 37.0 | 0.00 | 0.00 | 0.00 | 6 | 994.4 |
| 20260507095536 | 11 | -1 | 24.1 | 35.4 | 0.00 | 0.00 | 0.00 | 7 | 992.1 |
| 20260507095028 | 12 | -1 | 25.7 | 45.1 | 0.00 | 0.00 | 0.00 | 7 | 991.8 |
| 20260507094521 | 12 | -1 | 25.7 | 43.5 | 0.00 | 0.00 | 0.00 | 7 | 993.6 |
| 20260507094013 | 12 | -1 | 27.4 | 41.8 | 0.00 | 0.00 | 0.00 | 7 | 992.3 |
| 20260507093506 | 12 | -1 | 27.4 | 41.8 | 0.00 | 0.00 | 0.00 | 7 | 991.6 |
| 20260507092959 | 12 | -1 | 24.1 | 35.4 | 0.00 | 0.00 | 0.00 | 7 | 995.2 |
| 20260507092452 | 12 | -1 | 22.5 | 33.8 | 0.00 | 0.00 | 0.00 | 7 | 994.8 |
| 20260507091945 | 12 | -1 | 24.1 | 33.8 | 0.00 | 0.00 | 0.00 | 8 | 991.5 |
| 20260507091438 | 12 | -1 | 27.4 | 38.6 | 0.00 | 0.00 | 0.00 | 7 | 994.2 |
| 20260507090931 | 11 | -1 | 27.4 | 40.2 | 0.00 | 0.00 | 0.00 | 7 | 991.4 |
| 20260507090424 | 11 | -1 | 20.9 | 35.4 | 0.00 | 0.00 | 0.00 | 7 | 992.8 |
| 20260507085917 | 11 | -1 | 27.4 | 43.5 | 0.00 | 0.00 | 0.00 | 7 | 992.0 |
| 20260507085410 | 12 | -1 | 27.4 | 48.3 | 0.00 | 0.00 | 0.00 | 7 | 993.9 |
| 20260507084903 | 12 | -1 | 29.0 | 40.2 | 0.00 | 0.00 | 0.00 | 7 | 995.1 |
| 20260507084356 | 12 | -1 | 27.4 | 46.7 | 0.00 | 0.00 | 0.00 | 8 | 991.9 |
| 20260507083849 | 12 | -1 | 25.7 | 40.2 | 0.00 | 0.00 | 0.00 | 7 | 994.9 |
| 20260507083341 | 11 | -1 | 24.1 | 35.4 | 0.00 | 0.00 | 0.00 | 8 | 994.8 |
| 20260507082834 | 11 | -1 | 29.0 | 45.1 | 0.00 | 0.00 | 0.00 | 8 | 992.8 |
| 20260507082327 | 11 | -1 | 27.4 | 43.5 | 0.00 | 0.00 | 0.00 | 7 | 992.8 |
| 20260507081819 | 11 | -1 | 30.6 | 43.5 | 0.00 | 0.00 | 0.00 | 8 | 993.4 |
| 20260507081312 | 12 | -1 | 27.4 | 41.8 | 0.00 | 0.00 | 0.00 | 8 | 995.1 |
| 20260507080804 | 12 | -1 | 25.7 | 38.6 | 0.00 | 0.00 | 0.00 | 8 | 994.1 |
| 20260507080257 | 12 | -1 | 27.4 | 41.8 | 0.00 | 0.00 | 0.00 | 8 | 994.6 |
| 20260507075750 | 11 | -1 | 30.6 | 48.3 | 0.00 | 0.00 | 0.00 | 8 | 993.0 |
| 20260507075243 | 12 | -1 | 32.2 | 46.7 | 0.00 | 0.00 | 0.00 | 8 | 992.5 |
| 20260507074735 | 12 | -1 | 27.4 | 40.2 | 0.00 | 0.00 | 0.00 | 8 | 992.9 |
| 20260507074228 | 12 | -1 | 29.0 | 40.2 | 0.00 | 0.00 | 0.00 | 8 | 994.2 |
| 20260507073721 | 11 | -1 | 29.0 | 45.1 | 0.00 | 0.00 | 0.00 | 8 | 994.1 |
| 20260507073213 | 11 | -1 | 32.2 | 43.5 | 0.00 | 0.00 | 0.00 | 8 | 994.0 |
| 20260507072706 | 11 | -1 | 29.0 | 41.8 | 0.00 | 0.00 | 0.00 | 9 | 994.6 |
| 20260507072158 | 11 | -1 | 32.2 | 51.5 | 0.00 | 0.00 | 0.00 | 8 | 993.4 |
| 20260507071651 | 11 | -1 | 30.6 | 43.5 | 0.00 | 0.00 | 0.00 | 8 | 996.3 |
| 20260507071144 | 11 | -1 | 37.0 | 54.7 | 0.00 | 0.00 | 0.00 | 8 | 993.7 |
| 20260507070636 | 11 | -1 | 30.6 | 45.1 | 0.00 | 0.00 | 0.00 | 8 | 992.4 |
| 20260507070129 | 11 | -1 | 30.6 | 46.7 | 0.00 | 0.00 | 0.00 | 8 | 995.8 |
| 20260507065622 | 11 | -1 | 32.2 | 54.7 | 0.00 | 0.00 | 0.00 | 8 | 994.3 |
| 20260507065114 | 11 | -1 | 30.6 | 46.7 | 0.00 | 0.00 | 0.00 | 8 | 995.3 |
| 20260507064607 | 11 | -1 | 30.6 | 45.1 | 0.00 | 0.00 | 0.00 | 9 | 996.3 |
| 20260507064100 | 11 | -1 | 25.7 | 43.5 | 0.00 | 0.00 | 0.00 | 8 | 995.0 |
| 20260507063552 | 11 | -1 | 27.4 | 43.5 | 0.00 | 0.00 | 0.00 | 8 | 997.2 |
| 20260507063045 | 11 | -1 | 24.1 | 37.0 | 0.00 | 0.00 | 0.00 | 8 | 995.3 |
| 20260507062538 | 11 | -1 | 29.0 | 48.3 | 0.00 | 0.00 | 0.00 | 8 | 995.8 |
| 20260507062032 | 11 | -1 | 33.8 | 49.9 | 0.00 | 0.00 | 0.00 | 9 | 994.4 |
| 20260507061523 | 11 | -1 | 33.8 | 51.5 | 0.00 | 0.00 | 0.00 | 8 | 994.5 |
| 20260507061016 | 11 | -1 | 32.2 | 48.3 | 0.00 | 0.00 | 0.00 | 9 | 997.4 |
| 20260507060507 | 11 | -1 | 33.8 | 53.1 | 0.00 | 0.00 | 0.00 | 9 | 995.8 |
| 20260507055959 | 11 | -1 | 25.7 | 41.8 | 0.00 | 0.00 | 0.00 | 9 | 996.9 |
| 20260507055452 | 11 | -1 | 25.7 | 37.0 | 0.00 | 0.00 | 0.00 | 9 | 996.2 |
| 20260507054944 | 10 | 225 | 24.1 | 38.6 | 0.00 | 0.00 | 0.00 | 9 | 998.1 |
| 20260507054437 | 10 | -1 | 22.5 | 35.4 | 0.00 | 0.00 | 0.00 | 9 | 995.4 |
| 20260507053930 | 10 | -1 | 24.1 | 35.4 | 0.00 | 0.00 | 0.00 | 9 | 995.8 |
| 20260507053423 | 10 | -1 | 27.4 | 40.2 | 0.00 | 0.00 | 0.00 | 9 | 997.3 |
| 20260507052916 | 10 | 225 | 24.1 | 33.8 | 0.00 | 0.00 | 0.00 | 9 | 996.5 |
| 20260507052408 | 10 | 225 | 24.1 | 37.0 | 0.00 | 0.00 | 0.00 | 9 | 996.4 |
| 20260507051901 | 10 | -1 | 27.4 | 38.6 | 0.00 | 0.00 | 0.00 | 9 | 995.7 |
| 20260507051353 | 10 | -1 | 25.7 | 38.6 | 0.00 | 0.00 | 0.00 | 9 | 995.8 |
| 20260507050846 | 10 | -1 | 22.5 | 37.0 | 0.00 | 0.00 | 0.00 | 9 | 996.2 |
| 20260507050339 | 10 | -1 | 22.5 | 30.6 | 0.00 | 0.00 | 0.00 | 9 | 997.3 |
| 20260507045832 | 10 | -1 | 22.5 | 35.4 | 0.00 | 0.00 | 0.00 | 9 | 996.2 |
| 20260507045325 | 10 | -1 | 19.3 | 29.0 | 0.00 | 0.00 | 0.00 | 10 | 996.8 |
| 20260507044818 | 10 | 225 | 17.7 | 27.4 | 0.00 | 0.00 | 0.00 | 9 | 997.4 |
| 20260507044311 | 10 | 225 | 16.1 | 25.7 | 0.00 | 0.00 | 0.00 | 10 | 997.3 |
| 20260507043804 | 10 | 225 | 17.7 | 24.1 | 0.00 | 0.00 | 0.00 | 10 | 998.6 |
| 20260507043257 | 10 | 225 | 19.3 | 33.8 | 0.00 | 0.00 | 0.00 | 10 | 997.3 |